星链-34139 (STARLINK-34139)

导读

STARLINK-34139是美国SpaceX星链星座的卫星,于2025年5月13日发射入轨,属于星链卫星互联网组网项目。该卫星延续星链星座设计,搭载相控阵通信天线,可为全球范围提供低时延宽带互联网服务,推进星链星座完成全球组网覆盖,同时也延续星链星座的部署节奏,支撑商业和特殊领域通信需求。

基本信息
目录编号:
63975
目录名称:
STARLINK-34139
国际标识:
2025-099Z
轨道中心:
EARTH
卫星名称:
星链-34139
卫星全名:
星链-34139 (STARLINK-34139)
卫星状态:
在轨 (已飞行479 天)
发射日期:
2025-05-13 UTC
国别 :
美国 (US)
星等 :
--
轨道信息
数据来源 国际轨道数据
星历时间: 2026-09-03T09:48:14+0800
1天前
查看轨道信息
半长轴: 6861.237km
偏心率: 0.0000988
轨道倾角: 43.002°
近地点辐角 251.096°
升交点赤经 251.096°
平近点角 108.979°
近地点: 482.422km
远地点: 483.778km
周期: 94.268分钟
每日圈数: 15.275632
详细信息
固有亮度:
5
最大亮度:
2.5
卫星平台:
Starlink V1.0
覆盖范围:
全球
运营商:
太空探索技术公司
运营商所在国:
美国
制造商(研发单位):
太空探索技术公司
制造商所在国:
美国
使用方式:
暂无
卫星简介
Starlink 计划是 SpaceX 推出的全球卫星互联网项目,通过发射低轨道卫星,为全球尤其是偏远地区提供高速、低延迟的互联网服务。自 2019 年起,Starlink 已部署数千颗卫星,旨在缩小全球数字鸿沟,推动互联网普及。该项目还为军事、航空等行业提供通信支持,带来广泛经济效益。
2D轨道图
3D轨道图
轨道高度分析图
轨道倾角分析图
轨道综合分析图
查看轨道综合分析图
交会数据列表
事件ID 空间交会对象 最接近时刻(TCA) 交会距离 交会风险概率(CRP) 交会风险指数(CRI) 操作
CDM_260904-033506-397506-751421
2026-09-04T
03:35:02+0000
1.046 km
极远距离
1.74211E-5 中风险 0.6
CDM_260904-020006-397506-751421
2026-09-04T
02:00:52+0000
1.308 km
极远距离
8.029162E-6 低风险 0.53
CDM_260903-113801-921006-397524
2026-09-03T
11:38:01+0000
1.350 km
极远距离
7.433061E-6 低风险 0.52
CDM_260905-035406-397506-751421
2026-09-05T
03:54:25+0000
1.885 km
极远距离
2.575225E-6 低风险 0.43
CDM_260905-052506-397506-403921
2026-09-05T
05:25:41+0000
2.310 km
极远距离
1.81042E-6 低风险 0.4
CDM_260904-050906-397506-751421
2026-09-04T
05:09:11+0000
2.339 km
极远距离
1.559674E-6 低风险 0.39
CDM_260904-002606-397506-751421
2026-09-04T
00:26:43+0000
2.704 km
极远距离
1.21576E-6 低风险 0.37
CDM_260904-031205-717606-397523
OBJECT L (57176)
2026-09-04T
03:12:18+0000
2.750 km
极远距离
1.185529E-6 低风险 0.36